User: anonymous   Login
Location: Unspecified
(0.0000°N, 0.0000°E)
Time: 18:26:21
(UTC+00:00)
Language:

SO-50 - Orbit

View from above orbital plane
View from above orbital plane
View from above satellite
View from above satellite

Ground track
Ground track

The orbit data is extracted from the following two-line orbital elements,

1 27607U 02058C   17080.69516872 +.00000039 +00000-0 +26138-4 0  9993
2 27607 064.5566 032.9144 0034872 138.4623 221.9139 14.75296083766078
Epoch (UTC): 21 March 2017 16:41:02
Eccentricity: 0.0034872
inclination: 64.5566°
perigee height: 620 km
apogee height: 669 km
right ascension of ascending node: 32.9144°
argument of perigee: 138.4623°
revolutions per day: 14.75296083
mean anomaly at epoch: 221.9139°
orbit number at epoch: 76607

The dashed part of the orbit path shows where the satellite is in the earth's shadow,  

DLR